Weather Roundup
Issued by NWS Springfield, MO

Home | Current Version | Previous Version | Text Only | Print | Product List | Glossary On
Versions: 1 2 3 4 5 6 7 8 9 10 11 12 13 14 15 16 17 18 19 20 21 22 23 24 25 26 27 28 29 30 31 32 33 34 35 36 37 38 39 40 41 42 43 44 45 46 47 48 49 50
000
NZUS99 KSGF 041059
HRRSGF

HOURLY WEATHER
NATIONAL WEATHER SERVICE SPRINGFIELD MO
600 AM CDT MON MAY 04 2015

......SGF CWA......

CITY           SKY/WX    TMP DP  RH WIND       PRES   REMARKS
SPRINGFIELD    MOCLDY    62  55  77 SE9       30.05R
JOPLIN         CLOUDY    67  54  63 S12       30.03R
WEST PLAINS    CLOUDY    66  54  65 S6        30.10R
ROLLA          CLOUDY    62  56  80 S9        30.05R
OSAGE BEACH    CLOUDY    61  54  77 CALM      30.04S

......SURROUNDING SGF CWA......

CITY           SKY/WX    TMP DP  RH WIND       PRES   REMARKS
CHANUTE        MOCLDY    62  56  80 S9        30.00R
PARSONS        PTCLDY    62  57  83 CALM      30.02R
COFFEYVILLE    MOCLDY    63  56  78 S7        30.00R
EMPORIA        CLOUDY    62  55  77 S14       29.94S
SILOAM SPRINGS MOCLDY    63  52  67 S5        30.06R
HARRISON AR    MOCLDY    61  55  81 S5        30.08S
NEAR YELLVILLE MOCLDY    57  55  94 CALM      30.08R

......KANSAS AND MISSOURI......

CITY           SKY/WX    TMP DP  RH WIND       PRES   REMARKS
KANSAS CTY INT CLOUDY    62  55  77 S8        29.97F
DOWNTOWN KC    CLOUDY    66  55  67 S3        29.97S
COLUMBIA       CLOUDY    64  56  75 SW10      30.02S
SEDALIA        MOCLDY    65  56  72 S9        30.01R
ST JOSEPH      CLOUDY    66  57  72 S12       29.92F
ST LOUIS       LGT RAIN  70  55  59 SW9       30.05R
SPIRIT OF STL  LGT RAIN  66  58  75 S6        30.04R
KIRKSVILLE     CLOUDY    66  58  75 SW3       29.98S
WICHITA        MOCLDY    59  53  80 S3        29.97R
TOPEKA         MOCLDY    65  55  70 S5        29.96S
OLATHE         CLOUDY    64  56  75 N6        29.98R

......TENNESSEE......

CITY           SKY/WX    TMP DP  RH WIND       PRES   REMARKS
MEMPHIS        PTCLDY    63  55  75 S8        30.14R
NASHVILLE      PTCLDY    55  50  83 SE3       30.18R

......ARKANSAS.......

CITY           SKY/WX    TMP DP  RH WIND       PRES   REMARKS
FAYETTEVILLE   FAIR      57  56  96 E3        30.06S
FT SMITH       MOCLDY    61  57  87 E3        30.05R
LITTLE ROCK    PTCLDY    63  56  78 CALM      30.10R

......OKLAHOMA.......

CITY           SKY/WX    TMP DP  RH WIND       PRES   REMARKS
TULSA          CLOUDY    65  56  72 S9        29.99R
PONCA CITY     MOCLDY    63  57  81 SE9       29.98R
MCALESTER      MOCLDY    66  58  75 S5        30.04R
OKLAHOMA CITY  MOCLDY    61  56  83 S7        29.97S

......IOWA............

CITY           SKY/WX    TMP DP  RH WIND       PRES   REMARKS
DES MOINES     CLOUDY    62  55  77 N5        29.96R
QUAD CITIES    LGT RAIN  60  57  89 S6        30.00R

......ILLINOIS........

CITY           SKY/WX    TMP DP  RH WIND       PRES   REMARKS
QUINCY         CLOUDY    67  55  65 W7        30.01R
CHICAGO        CLOUDY    60  54  80 W6        29.94R



USA.gov is the U.S. government's official web portal to all federal, state and local government web resources and services.